FW5198 Weather Reports


time (UTC)temp
C
wind
direction
speed
KPH
gust
KPH
rain 1hr
cm
rain 24hr
cm
rain mn
cm
humidity
%
barometer
mb
20260504081541 11 50 1.6 6.4 0.00 0.00 0.00 75 1014.1
20260504044544 12 65 6.4 11.3 0.00 0.00 0.00 68 1015.2
20260504043048 11 41 1.6 4.8 0.00 0.00 0.00 73 1015.3
20260504041544 11 18 0.0 1.6 0.00 0.00 0.00 74 1015.6
20260504040046 10 0 0.0 4.8 0.00 0.00 0.00 77 1015.7
20260504034547 11 0 0.0 1.6 0.00 0.00 0.00 77 1015.8
20260504033046 11 0 0.0 1.6 0.00 0.00 0.00 75 1016.0
20260504031544 11 0 0.0 0.0 0.00 0.00 0.00 73 1016.0
20260504030040 11 0 0.0 1.6 0.00 0.00 0.00 73 1016.0
20260504024547 12 0 0.0 1.6 0.00 0.00 0.00 71 1015.9
20260504023046 12 0 0.0 1.6 0.00 0.00 0.00 67 1015.9
20260504021542 13 0 0.0 6.4 0.00 0.00 0.00 66 1015.5
20260504020043 13 18 3.2 6.4 0.00 0.00 0.00 65 1015.4
20260504014542 12 45 0.0 1.6 0.00 0.00 0.00 68 1015.5
20260504013102 13 0 0.0 1.6 0.00 0.00 0.00 67 1015.5
20260504011546 14 0 0.0 1.6 0.00 0.00 0.00 63 1015.4
20260504010045 15 0 0.0 1.6 0.00 0.00 0.00 61 1015.6
20260504004541 16 44 0.0 1.6 0.00 0.00 0.00 56 1015.6
20260504003041 17 44 1.6 6.4 0.00 0.00 0.00 49 1015.7
20260504001543 17 44 1.6 6.4 0.00 0.00 0.00 47 1015.8
20260504000046 18 37 1.6 8.0 0.00 0.00 0.00 45 1015.7
20260503234543 18 25 3.2 14.5 0.00 0.00 0.00 43 1015.9
20260503233039 18 55 6.4 16.1 0.00 0.00 0.00 41 1016.0
20260503231541 19 49 4.8 11.3 0.00 0.00 0.00 40 1016.4
20260503230049 20 57 4.8 16.1 0.00 0.00 0.00 40 1016.3
20260503224550 20 100 3.2 12.9 0.00 0.00 0.00 40 1016.6
20260503223042 20 35 4.8 12.9 0.00 0.00 0.00 39 1016.5
20260503221551 20 348 4.8 20.9 0.00 0.00 0.00 39 1016.7
20260503220047 20 26 6.4 12.9 0.00 0.00 0.00 38 1016.9
20260503214545 19 58 6.4 19.3 0.00 0.05 0.00 40 1017.2
20260503213045 20 37 6.4 17.7 0.00 0.05 0.00 40 1017.4
20260503211541 19 360 9.7 19.3 0.00 0.05 0.00 39 1017.7
20260503210047 19 83 4.8 24.1 0.00 0.05 0.00 38 1018.1
20260503204553 20 46 8.0 19.3 0.00 0.10 0.00 37 1018.2
20260503203049 20 56 6.4 16.1 0.00 0.10 0.00 39 1018.3
20260503201541 19 26 11.3 17.7 0.00 0.10 0.00 40 1018.7
20260503200040 19 78 8.0 19.3 0.00 0.10 0.00 40 1019.1
20260503194548 19 75 4.8 17.7 0.00 0.10 0.00 38 1019.2
20260503193049 18 65 6.4 20.9 0.00 0.10 0.00 37 1019.6
20260503191608 18 23 4.8 16.1 0.00 0.10 0.00 40 1019.8
20260503190041 18 330 6.4 20.9 0.00 0.10 0.00 39 1020.0
20260503184541 18 352 1.6 14.5 0.00 0.10 0.00 38 1020.1
20260503183042 18 46 4.8 19.3 0.00 0.10 0.00 39 1020.4
20260503181549 17 27 8.0 16.1 0.00 0.10 0.00 40 1020.6
20260503180043 18 7 4.8 14.5 0.00 0.10 0.00 40 1020.7
20260503174552 18 49 3.2 6.4 0.00 0.10 0.00 38 1020.9
20260503173046 16 49 1.6 11.3 0.00 0.10 0.00 43 1021.2
20260503171541 17 46 4.8 11.3 0.00 0.10 0.00 41 1021.3